This is the latest recevied weather packets stored in our database for station/object KQ4UPF. If no packets are shown the sender has not sent any weather packets the latest 10 day(s).
| Time | Temp. | Humidity | Pressure | Rain* | Wind** | Luminosity | Snow |
|---|---|---|---|---|---|---|---|
| 1778093816 | 19.44° C | 89% | 1014 hPa | 0 mm | - | 84 W/m² | - |
| 1778093512 | 19.44° C | 89% | 1014.3 hPa | 0 mm | - | 38 W/m² | - |
| 1778093210 | 20° C | 88% | 1014.4 hPa | 0 mm | - | 47 W/m² | - |
| 1778092907 | 20.56° C | 88% | 1014.3 hPa | 0 mm | - | 30 W/m² | - |
| 1778092604 | 21.11° C | 88% | 1014.1 hPa | 0 mm | - | 26 W/m² | - |
| 1778092300 | 21.67° C | 93% | 1014 hPa | 0 mm | - | 28 W/m² | - |
| 1778091998 | 21.67° C | 94% | 1013.9 hPa | 0 mm | - | 95 W/m² | - |
| 1778091694 | 21.67° C | 94% | 1013.9 hPa | 0 mm | - | 110 W/m² | - |
| 1778091392 | 21.67° C | 93% | 1013.6 hPa | 0 mm | - | 95 W/m² | - |
| 1778091089 | 21.67° C | 93% | 1013.6 hPa | 0 mm | - | 101 W/m² | - |
| 1778090786 | 21.67° C | 93% | 1013.9 hPa | 0 mm | - | 114 W/m² | - |
| 1778090482 | 21.67° C | 93% | 1013.5 hPa | 0 mm | - | 120 W/m² | - |
| 1778090179 | 21.67° C | 93% | 1013.8 hPa | 1.27 mm | - | 166 W/m² | - |
| 1778089874 | 21.11° C | 93% | 1013.6 hPa | 1.27 mm | - | 92 W/m² | - |
| 1778089574 | 21.11° C | 92% | 1013.8 hPa | 0 mm | - | 75 W/m² | - |
| 1778089270 | 21.67° C | 92% | 1014 hPa | 0 mm | - | 78 W/m² | - |
| 1778088968 | 21.67° C | 92% | 1013.9 hPa | 0 mm | - | 81 W/m² | - |
| 1778088664 | 21.67° C | 93% | 1014 hPa | 0 mm | - | 75 W/m² | - |
| 1778088362 | 21.11° C | 93% | 1014.1 hPa | 0 mm | - | 212 W/m² | - |
| 1778088057 | 21.11° C | 93% | 1014.1 hPa | 0 mm | - | 126 W/m² | - |
| 1778087755 | 21.11° C | 93% | 1014.2 hPa | 0 mm | - | 46 W/m² | - |
| 1778087453 | 21.11° C | 92% | 1014.2 hPa | 0 mm | - | 38 W/m² | - |
| 1778087150 | 21.11° C | 92% | 1014.3 hPa | 0 mm | - | 52 W/m² | - |
| 1778086847 | 21.67° C | 91% | 1014.2 hPa | 0 mm | - | 47 W/m² | - |
| 1778086546 | 21.67° C | 92% | 1014.2 hPa | 0 mm | - | 75 W/m² | - |
* Rain latest hour (hover to see other rain measurements)
** Current wind speed in m/s (hover to see current wind gust speed)